Location: Brienzwiler
(46.7508°N, 8.1014°E)
Time: 01:19:12
(UTC+00:00)

Meteor 1-26 Rocket - Pass Details

Date: 05 July 2020
Orbit: 811 x 924 km, 81.3° (Epoch: 11 August)

Event Time Altitude Azimuth Distance (km) Brightness Sun altitude
Rises 23:24:28 0° 347° (NNW) 3,582 8.9 -20.6°
Reaches altitude 10° 23:26:58 10° 347° (NNW) 2,630 7.9 -20.6°
Maximum altitude 23:32:59 79° 262° (W) 935 4.3 -20.6°
Enters shadow 23:35:18 39° 182° (S) 1,325 4.7 -20.6°
